Find CAS500-1

NORAD ID: 47932 Int'l Des: 2021-022 Owner: KARI Country: KR operational
LEOCIRCULARRETROGRADESSO

Live Position

Loading 3D Globe...

About CAS500-1

Description loading...

Upcoming Passes

Passes for default location (London). Set your location on the main map for personalized predictions.

Altitude History

Loading altitude history...

Two-Line Element Set

1 47932U 21022A 26111.78344889 .00000518 00000-0 27055-4 0 9991
2 47932 97.3958 8.1594 0007004 119.7968 240.3964 15.20134723282195
Epoch: Apr 21, 2026 • Age: 8 hours

Current Status

Altitude 535.1 km
Velocity 7.59 km/s
Sub-Earth Point -65.15°S, 138.32°E
Launch Date Mar 22, 2021
Age 5 years
Type earth observation

Technical Details

Classification Payload
Mass 500.00 kg
Dry Mass 480.00 kg
Total Mass 500.00 kg
Length 2.90 m
Diameter 1.90 m
Span 6.00 m
Shape Box+4 pan
Manufacturer KRAI
Bus Type CAS500
Phase Status In Orbit
Owner/State KARI/KR

Most Searched